This is the latest recevied weather packets stored in our database for station/object OK1JRA-6. If no packets are shown the sender has not sent any weather packets the latest 1 day(s).
| Time | Temp. | Humidity | Pressure | Rain* | Wind** | Luminosity | Snow |
|---|---|---|---|---|---|---|---|
| 1777987384 | 38.33° C | 11% | 1005.4 hPa | 0 mm | 0.45 m/s, 211° | - | - |
| 1777987384 | 38.33° C | 11% | 1005.4 hPa | 0 mm | 0.45 m/s, 211° | - | - |
| 1777987082 | 39.44° C | 11% | 1005.5 hPa | 0 mm | 0.45 m/s, 196° | - | - |
| 1777987081 | 39.44° C | 11% | 1005.5 hPa | 0 mm | 0.45 m/s, 196° | - | - |
| 1777987078 | 39.44° C | 11% | 1005.5 hPa | 0 mm | 0.45 m/s, 196° | - | - |
| 1777987078 | 39.44° C | 11% | 1005.5 hPa | 0 mm | 0.45 m/s, 196° | - | - |
| 1777986771 | 38.89° C | 12% | 1005.5 hPa | 0 mm | 0.45 m/s, 190° | - | - |
| 1777986469 | 37.78° C | 13% | 1005.6 hPa | 0 mm | 0.89 m/s, 195° | - | - |
| 1777986469 | 37.78° C | 13% | 1005.6 hPa | 0 mm | 0.89 m/s, 195° | - | - |
| 1777986466 | 37.78° C | 13% | 1005.6 hPa | 0 mm | 0.89 m/s, 195° | - | - |
| 1777986466 | 37.78° C | 13% | 1005.6 hPa | 0 mm | 0.89 m/s, 195° | - | - |
| 1777986465 | 37.78° C | 13% | 1005.6 hPa | 0 mm | 0.89 m/s, 195° | - | - |
| 1777986159 | 37.78° C | 13% | 1005.7 hPa | 0 mm | 0.89 m/s, 175° | - | - |
| 1777986159 | 37.78° C | 13% | 1005.7 hPa | 0 mm | 0.89 m/s, 175° | - | - |
| 1777985857 | 37.78° C | 13% | 1005.8 hPa | 0 mm | 1.34 m/s, 143° | - | - |
| 1777985857 | 37.78° C | 13% | 1005.8 hPa | 0 mm | 1.34 m/s, 143° | - | - |
| 1777985853 | 37.78° C | 13% | 1005.8 hPa | 0 mm | 1.34 m/s, 143° | - | - |
| 1777985853 | 37.78° C | 13% | 1005.8 hPa | 0 mm | 1.34 m/s, 143° | - | - |
| 1777985853 | 37.78° C | 13% | 1005.8 hPa | 0 mm | 1.34 m/s, 143° | - | - |
| 1777985551 | 38.33° C | 13% | 1005.8 hPa | 0 mm | 0.89 m/s, 154° | - | - |
| 1777985550 | 38.33° C | 13% | 1005.8 hPa | - | 0.89 m/s, 154° | - | - |
| 1777985547 | 38.33° C | 13% | 1005.8 hPa | 0 mm | 0.89 m/s, 154° | - | - |
| 1777985547 | 38.33° C | 13% | 1005.8 hPa | 0 mm | 0.89 m/s, 154° | - | - |
| 1777985547 | 38.33° C | 13% | 1005.8 hPa | 0 mm | 0.89 m/s, 154° | - | - |
| 1777985244 | 38.89° C | 13% | 1005.9 hPa | 0 mm | 0.89 m/s, 149° | - | - |
* Rain latest hour (hover to see other rain measurements)
** Current wind speed in m/s (hover to see current wind gust speed)